Wind_Speed
8 4 2 5 9 12 11 11 14 11 4 4 4 6 8 9 10 9 11 10 5 6 7 12 21 18 16 16 13 23 29 21 23 29 34 36 34 35 40 47 50 51 53 50 48 48 46 45 44 43 42 40 39 37 35 35 35 34 34 35 37 38 40 42 43 43 44 45 45 46 46 45 45 45 46 46 46 45 44 44 44 44 43 41 41 40
5 5 7 12 13 10 6 4 6 6 6 6 5 7 8 6 12 12 12 13 4 3 6 9 18 20 15 15 15 20 20 19 23 21 27 37 37 36 39 47 52 51 51 50 49 47 44 43 43 41 40 39 37 35 33 32 32 32 32 33 34 35 38 40 42 43 43 44 45 45 43 43 44 45 45 45 45 45 44 44 45 46 45 44 43 42
3 4 12 16 11 2 3 2 2 5 7 7 4 5 7 5 10 12 10 11 4 2 6 7 16 17 12 15 18 19 18 22 28 22 26 36 39 41 42 42 43 45 50 50 47 45 43 42 42 41 39 37 35 32 30 29 29 29 30 31 31 33 35 37 40 42 42 42 44 46 44 43 44 44 45 45 45 44 45 46 46 46 46 46 45 43
3 7 13 15 9 3 4 3 3 6 5 6 5 4 9 6 6 8 5 5 4 3 6 10 16 13 11 15 16 20 20 21 30 32 33 39 43 47 43 35 37 44 49 50 46 43 40 39 40 39 36 33 31 30 29 28 28 28 29 29 30 31 32 35 38 41 42 42 44 47 47 45 44 44 44 45 45 45 46 46 46 47 47 47 46 44
7 8 5 4 6 8 7 6 4 7 7 6 6 6 11 11 10 10 6 6 6 4 6 7 13 10 6 9 8 9 11 12 23 30 32 41 44 43 40 38 42 45 43 43 44 40 35 35 36 36 33 29 28 29 28 27 27 28 28 28 29 29 31 32 35 38 41 43 45 48 48 47 46 45 45 46 47 48 48 47 46 46 46 46 46 45
9 9 4 4 4 6 5 6 7 9 7 4 6 12 16 15 13 12 9 8 6 4 4 5 7 8 2 3 5 5 4 8 14 17 24 32 31 29 34 41 43 40 36 37 39 36 32 32 33 34 32 31 30 30 27 25 25 26 27 28 29 30 30 31 33 36 39 42 45 48 49 48 48 48 48 47 48 48 46 44 43 43 43 45 46 46
5 5 2 4 4 6 5 7 8 8 5 6 6 11 14 12 10 10 8 4 2 4 3 4 1 8 4 3 7 7 6 11 14 13 16 21 24 28 33 37 38 36 35 35 34 32 30 29 31 32 31 31 31 28 25 23 23 24 26 28 29 30 31 32 34 36 38 41 44 46 48 48 47 46 46 46 46 43 39 38 40 40 42 44 46 47
4 1 4 5 5 6 5 7 6 9 5 6 5 6 8 8 7 6 3 3 4 3 3 2 4 7 10 5 7 8 8 12 15 13 11 14 22 28 28 29 30 30 30 30 30 29 27 27 29 31 30 28 27 26 24 22 20 22 25 28 30 30 31 32 34 36 38 40 42 44 45 46 47 46 44 43 42 40 38 39 40 40 41 42 45 47
3 4 5 6 5 4 6 5 6 11 6 6 3 5 5 5 4 4 4 4 2 4 4 3 5 3 11 6 3 2 6 10 14 13 11 12 16 20 22 25 28 28 28 27 28 29 26 27 30 29 26 24 25 25 23 20 18 19 22 25 29 31 32 33 35 37 38 38 39 41 43 45 45 45 45 43 42 40 40 40 40 40 41 41 43 46
1 3 6 8 6 5 7 4 7 12 7 4 4 5 4 3 2 3 3 2 2 4 5 4 4 2 10 7 3 2 3 7 10 9 9 11 15 18 22 28 31 29 28 27 28 28 27 29 29 28 23 20 22 24 22 20 18 18 19 22 25 29 31 33 34 36 37 38 39 39 40 42 43 44 44 43 43 41 40 41 41 41 41 40 41 43
3 2 3 5 6 6 5 3 5 9 5 2 5 4 5 4 4 3 1 3 3 6 5 7 9 5 7 5 3 3 4 5 4 7 9 11 16 24 28 30 27 23 23 25 25 27 28 28 25 23 21 17 18 20 21 20 18 18 19 19 21 24 28 31 33 34 36 37 38 39 39 39 40 42 42 42 42 42 42 42 42 41 40 39 39 41
1 2 2 4 8 5 4 2 1 1 2 4 4 3 4 4 4 4 4 3 2 6 5 8 9 7 6 6 1 4 6 5 6 7 10 10 14 27 30 24 20 20 20 21 22 24 26 24 21 19 18 16 16 17 17 19 17 16 16 16 17 19 22 26 29 32 34 35 37 37 37 38 39 40 40 40 40 40 41 41 41 40 39 38 39 40
1 5 4 2 6 8 5 1 3 3 4 5 3 3 2 4 3 3 3 1 3 7 5 6 6 4 10 11 5 9 15 14 9 8 11 12 15 25 22 15 16 19 21 22 23 25 25 24 22 21 20 19 18 16 14 14 14 13 12 13 13 14 16 19 23 27 30 32 33 35 36 36 37 38 38 38 39 39 40 40 40 40 39 39 39 39
3 5 2 1 4 9 10 4 3 2 4 5 5 4 3 1 2 3 3 2 4 6 3 4 5 3 9 9 7 12 15 14 10 8 12 13 16 19 13 11 14 16 21 24 24 25 27 28 29 27 27 27 24 20 18 16 15 14 13 12 13 13 14 16 18 21 24 27 30 32 33 34 36 37 37 38 39 39 39 39 39 39 39 38 38 38
3 7 4 5 3 9 11 8 6 4 4 5 5 5 4 4 4 4 4 4 6 5 3 1 4 4 6 5 6 10 11 13 17 18 16 13 12 12 9 11 17 18 19 22 24 26 28 30 31 29 28 28 27 26 23 22 20 18 16 14 13 13 14 16 18 20 21 23 26 29 31 33 35 37 38 38 39 39 38 38 38 37 37 37 36 36
4 8 6 2 1 10 9 5 6 7 2 3 3 4 3 5 4 3 5 6 6 5 4 2 3 5 5 8 11 11 12 14 18 22 20 13 7 5 5 13 21 21 20 23 26 29 30 29 30 30 28 27 26 26 24 23 22 21 19 16 14 13 13 14 17 19 21 22 24 26 28 31 34 37 38 40 40 40 39 38 37 36 36 36 35 35
3 6 4 1 1 6 7 3 5 5 2 1 3 3 4 4 5 3 6 4 3 6 6 5 7 7 5 10 13 10 10 10 9 11 10 10 8 4 7 14 20 20 22 27 30 31 30 29 28 27 26 25 24 24 23 23 23 22 21 19 18 16 14 14 15 17 21 23 25 26 27 29 32 35 37 39 40 41 40 39 38 37 37 37 37 37
3 5 4 3 3 6 4 1 3 4 4 5 4 4 2 2 3 2 3 1 3 7 5 6 12 11 6 8 9 9 12 10 6 6 4 4 8 7 6 11 18 21 25 30 31 29 28 27 25 23 22 23 23 21 20 21 23 23 24 23 22 21 19 18 17 17 19 22 25 26 28 29 30 33 35 37 39 40 41 40 40 39 39 39 38 38
1 3 4 3 4 3 1 1 4 5 3 4 3 1 1 1 2 2 1 1 5 8 5 6 11 10 7 9 10 13 19 15 6 5 7 8 9 7 11 19 25 27 28 29 27 26 25 23 22 19 17 18 20 20 20 20 22 25 27 28 29 28 26 24 23 22 21 22 23 25 27 29 30 32 34 36 38 40 41 41 41 41 40 39 39 39
1 2 4 3 3 0 2 2 5 5 2 3 1 2 1 2 4 4 2 2 4 8 8 8 9 7 6 7 10 15 21 17 7 4 8 10 10 16 22 26 28 28 28 29 28 28 27 25 23 20 18 18 19 20 20 19 21 24 26 28 29 30 29 29 28 28 27 26 25 26 26 28 30 32 33 35 37 40 41 41 42 42 42 41 41 41
1 4 6 3 1 0 1 5 7 7 4 2 3 2 2 3 2 3 3 3 5 7 8 9 9 6 4 4 10 16 17 13 6 4 6 9 16 24 24 25 27 30 32 34 34 33 32 29 26 24 21 19 19 20 20 20 22 24 25 26 26 26 27 28 29 30 32 31 32 31 29 28 29 31 33 35 37 38 40 41 43 43 43 44 44 43
2 4 5 4 3 5 8 8 7 8 6 5 5 5 6 5 3 6 7 6 6 6 6 8 9 6 3 4 8 12 12 9 10 8 6 14 24 28 28 28 29 32 35 36 37 37 36 34 32 29 25 22 20 21 21 22 24 25 25 25 25 25 26 26 26 28 31 33 35 37 36 34 33 33 35 37 39 40 40 40 41 43 44 45 46 46
3 2 3 6 7 9 11 8 6 6 5 2 3 4 5 4 4 7 9 7 6 5 4 7 9 6 4 7 8 9 10 12 21 20 14 17 24 28 31 34 35 36 37 38 39 38 38 36 34 31 29 28 26 25 24 24 25 26 26 26 26 27 27 25 23 23 25 29 33 36 39 40 40 39 39 40 41 41 41 41 42 43 44 45 46 47
1 1 3 7 7 6 8 8 5 3 5 1 2 3 4 3 3 7 6 4 4 4 4 7 8 4 1 5 6 8 14 19 25 24 18 19 24 29 32 35 37 38 38 39 39 38 38 37 35 34 33 33 32 31 29 28 27 27 28 28 28 29 29 28 26 23 22 24 28 31 34 38 41 44 45 46 45 43 43 43 44 45 46 47 48 49
1 1 3 5 5 4 4 6 5 1 2 2 3 4 5 5 6 7 4 3 2 5 8 9 7 4 3 4 6 13 16 16 19 23 23 23 25 28 31 34 36 39 40 40 41 40 40 39 39 38 37 37 36 35 34 33 31 30 30 30 30 30 30 30 29 28 26 26 27 28 30 33 37 41 44 46 48 48 48 49 48 47 49 50 51 52
1 2 3 4 6 6 6 5 2 2 2 2 2 3 4 4 6 5 4 4 5 6 9 9 7 6 6 5 11 15 14 12 14 19 23 24 25 27 29 32 34 36 39 41 42 42 42 42 41 41 40 39 38 38 37 36 35 34 33 32 32 32 32 31 30 30 30 29 29 29 30 31 33 36 40 42 44 47 50 53 53 52 53 53 53 54
1 2 5 8 9 9 9 7 5 6 7 7 7 7 7 6 6 4 3 6 8 7 8 10 11 12 10 6 10 11 11 12 12 14 18 21 24 27 28 31 34 36 38 39 41 43 43 43 43 42 42 41 40 39 39 38 37 37 36 34 34 34 34 34 33 33 33 32 31 32 32 32 32 35 37 39 40 43 47 51 54 55 55 54 55 56
2 3 6 10 12 10 11 12 11 10 10 10 11 11 11 10 8 7 8 10 9 8 8 9 12 15 10 4 8 8 9 9 8 11 15 17 20 24 26 30 34 37 40 41 42 42 42 42 42 43 43 43 42 41 40 39 39 39 38 37 36 36 36 36 35 35 35 35 34 34 34 33 32 33 35 37 38 40 43 46 50 54 55 55 55 57
3 4 6 10 13 11 11 12 9 7 7 7 9 11 11 11 12 13 15 13 10 10 10 12 16 17 7 5 6 7 8 9 7 8 11 14 18 22 25 27 30 33 37 39 40 40 39 40 40 41 42 43 43 43 42 42 42 41 40 39 38 38 38 38 38 37 37 36 37 37 35 33 32 31 32 35 37 39 41 42 45 49 54 56 56 57
3 3 4 7 9 8 9 9 7 7 8 8 10 10 10 12 15 16 16 14 13 15 15 16 18 12 2 4 3 3 6 9 9 8 9 12 16 20 24 26 26 28 31 33 36 38 38 39 39 39 41 41 42 43 44 45 45 45 44 42 40 38 38 39 39 39 39 38 38 38 36 34 32 30 30 33 35 37 39 40 41 45 50 55 56 57
3 3 3 4 6 8 9 9 9 9 9 10 11 10 11 15 16 16 15 13 14 16 14 14 13 5 4 3 2 2 3 6 8 9 9 10 14 18 22 26 26 27 28 29 32 35 36 38 39 39 40 40 41 42 43 45 46 46 46 44 42 40 38 38 39 40 39 39 39 38 37 35 33 30 29 31 33 35 37 38 40 43 47 51 53 54
2 3 5 5 6 7 9 11 10 9 9 12 13 14 17 17 15 15 11 5 7 10 8 9 8 1 2 1 1 2 2 4 5 7 8 9 12 16 21 25 26 26 28 29 30 32 34 36 38 38 38 39 40 41 42 44 46 47 47 47 45 42 38 37 37 39 39 39 39 39 38 37 34 31 29 29 30 32 34 36 39 42 45 47 49 51
2 3 3 4 5 7 11 11 7 6 9 12 10 11 14 15 15 15 7 2 1 4 3 5 2 2 1 2 2 4 4 4 6 9 11 10 9 13 19 23 25 26 27 28 29 30 31 33 34 35 36 37 39 40 41 42 44 45 47 47 46 44 40 37 36 37 38 39 39 39 38 38 37 35 32 28 27 29 31 34 38 40 42 44 45 47
4 5 5 4 4 8 12 9 5 5 11 10 4 3 6 7 9 9 3 3 2 1 2 2 2 3 1 2 2 4 5 7 10 13 16 13 9 13 21 22 23 25 26 27 28 29 30 31 32 33 34 35 37 38 39 40 42 43 44 45 46 45 42 39 37 36 37 38 39 39 39 39 39 39 37 33 29 27 28 31 34 37 40 41 43 45
7 8 6 4 4 6 8 6 6 10 9 2 2 1 0 3 5 4 4 5 5 5 6 3 2 2 3 4 5 7 9 11 12 15 17 12 8 14 22 23 24 25 26 27 29 30 31 31 31 31 32 34 35 37 38 40 41 43 43 44 45 45 44 42 39 37 36 37 37 39 40 41 41 40 41 40 36 31 28 29 31 34 37 39 41 43
10 8 4 3 3 2 2 4 7 7 1 2 1 2 2 5 7 6 2 4 5 5 5 2 3 4 5 7 9 10 12 14 13 16 14 8 7 16 24 26 27 28 27 28 30 31 31 30 29 30 32 33 35 36 38 39 41 43 44 44 44 45 45 44 41 39 38 38 38 38 39 41 42 42 42 42 41 37 31 28 29 31 34 37 39 41
9 7 3 3 4 3 4 7 7 6 4 3 2 0 2 3 3 2 0 3 4 2 2 3 5 6 7 9 12 13 13 11 10 10 6 6 9 21 25 27 29 29 29 29 29 31 31 30 29 29 31 33 33 34 36 38 39 42 44 45 45 45 46 45 43 42 40 39 39 39 39 40 41 42 42 42 41 40 36 31 28 29 31 35 38 40
10 8 6 5 5 4 4 4 4 6 6 4 3 3 3 4 4 2 1 2 3 3 7 7 7 7 8 9 12 12 10 7 5 4 3 6 17 25 26 28 29 29 29 30 30 32 32 31 31 31 31 33 33 33 34 35 38 40 42 44 45 46 47 47 46 45 44 42 41 40 40 40 41 41 41 41 40 40 38 34 29 27 29 32 35 38
8 8 7 5 4 3 3 4 5 6 5 3 5 5 4 4 4 3 1 1 2 4 8 10 9 8 8 10 11 8 4 4 4 7 12 17 23 26 28 30 30 29 31 31 31 33 33 33 33 33 34 35 35 35 35 36 37 39 41 43 44 45 47 47 47 47 47 46 45 43 41 41 41 41 41 40 39 38 37 36 32 27 27 29 32 35
2 4 5 5 5 4 5 6 5 4 3 3 6 6 4 3 3 2 4 3 3 3 8 12 11 10 11 14 11 5 3 6 7 14 23 27 28 29 30 31 31 32 33 33 33 33 34 34 34 35 36 37 38 39 39 40 41 41 41 42 43 43 45 45 47 48 47 48 48 46 44 42 41 41 41 40 39 38 36 35 33 29 26 26 29 32
1 1 2 4 5 6 7 7 5 4 3 4 6 8 5 1 2 3 6 2 2 4 6 10 13 14 14 15 12 9 12 18 19 22 28 30 31 32 31 31 32 33 34 35 35 35 35 36 36 37 39 40 41 42 42 42 44 45 44 44 43 43 43 44 46 47 47 48 49 49 47 44 42 42 41 40 39 37 35 34 33 31 27 25 26 29
2 0 1 3 4 4 5 5 4 4 3 4 5 7 4 3 2 5 4 3 8 12 10 8 12 15 16 18 18 18 24 27 26 27 29 30 33 35 34 34 34 34 35 36 36 36 36 38 38 39 41 42 43 45 44 44 45 46 46 47 46 45 45 45 46 47 47 48 49 49 48 47 45 43 42 41 40 37 35 33 32 32 29 25 24 26
3 2 2 3 3 0 2 3 4 5 2 5 2 3 1 5 5 7 7 13 19 19 16 15 16 18 20 21 22 25 28 28 29 30 31 32 34 36 37 37 36 37 38 38 37 37 37 39 41 42 43 43 44 45 46 46 48 48 49 49 48 48 48 48 48 48 48 49 50 49 49 48 46 45 43 42 41 39 36 33 31 31 30 27 25 25
2 3 3 3 2 2 3 5 4 5 4 2 2 2 6 13 19 17 13 17 22 22 19 18 20 23 24 23 25 27 29 29 31 32 32 33 35 37 39 39 39 40 40 40 39 39 39 42 44 45 45 45 44 44 45 47 50 51 52 52 51 51 52 52 50 50 50 50 51 52 51 49 47 46 45 43 42 40 38 35 32 30 30 29 27 25
3 5 4 4 4 3 5 8 6 3 8 15 16 16 23 30 32 26 19 19 23 25 23 21 23 27 26 25 26 27 29 31 32 32 32 34 36 38 40 41 42 42 42 41 42 42 43 45 47 48 48 47 45 45 46 48 50 53 55 55 54 55 56 56 54 53 53 52 53 53 53 52 50 48 46 44 43 42 40 37 34 31 30 29 29 28
5 4 3 2 4 3 6 13 11 8 16 27 31 32 32 32 31 29 24 22 25 29 29 26 27 29 28 26 25 26 29 32 32 32 33 34 36 38 40 42 44 43 43 44 44 46 47 48 49 51 51 50 49 49 49 50 51 53 56 57 56 57 58 58 57 57 57 56 54 53 54 55 55 53 49 46 45 43 42 40 36 34 31 30 30 30
6 6 4 4 6 6 8 10 8 9 20 28 30 33 33 30 30 30 27 27 30 32 32 30 29 29 28 27 26 27 29 31 31 33 34 35 37 40 42 44 45 45 45 47 47 48 50 51 52 53 53 54 54 53 53 54 55 55 57 58 58 58 59 59 59 59 59 60 58 57 56 56 56 56 53 49 46 45 44 43 39 37 34 32 31 31
5 5 6 7 9 9 11 13 13 18 26 28 27 30 31 32 34 34 33 33 31 29 27 27 27 28 27 27 26 26 28 31 32 33 34 36 39 43 45 46 46 46 48 49 50 51 51 52 54 54 55 57 58 58 58 59 59 59 58 59 59 59 59 60 60 60 61 61 61 60 59 56 56 57 55 52 48 45 45 44 42 40 38 35 33 33
7 4 4 4 7 9 11 13 16 18 19 22 27 30 30 32 33 32 30 27 24 22 23 23 24 25 26 26 26 25 28 32 34 32 33 38 42 45 45 46 47 48 50 52 52 52 51 53 54 55 56 59 60 60 61 62 63 62 60 59 59 57 57 60 62 61 61 61 60 61 60 57 56 55 53 51 48 46 46 45 43 42 41 38 35 34
8 6 4 3 5 8 9 11 15 12 8 15 25 28 26 25 24 23 22 21 20 20 21 22 23 25 26 27 27 26 28 32 35 35 36 39 42 44 46 47 48 50 52 53 53 54 54 54 54 54 57 60 61 61 62 64 66 65 62 58 56 53 53 57 60 61 62 61 59 60 59 57 54 51 48 47 46 46 46 45 43 41 41 40 38 35
12 11 9 6 7 11 14 20 22 14 9 18 27 27 24 23 21 20 19 20 20 21 21 22 25 26 28 29 28 28 30 34 36 36 38 40 44 46 47 48 48 50 53 54 54 55 56 56 56 56 58 61 61 62 63 65 67 67 63 57 51 49 50 53 54 57 59 59 57 57 56 54 53 50 48 47 45 44 44 45 44 42 40 39 38 37
Wind_Direction
167 154 156 204 217 220 221 210 223 246 284 295 277 263 264 273 271 262 269 265 243 271 259 254 272 277 275 277 273 274 278 270 263 270 275 276 275 275 276 277 278 276 279 285 287 288 289 289 289 288 288 287 285 283 280 276 272 270 267 264 261 259 257 254 249 243 240 239 237 236 236 236 236 236 234 232 230 230 229 230 231 231 230 228 227 227
139 176 220 223 223 226 232 226 250 283 310 287 265 275 271 259 271 267 267 273 252 247 255 244 271 277 273 279 275 270 271 263 257 257 269 277 278 275 271 272 276 278 282 286 287 290 292 292 293 292 290 289 289 288 285 282 277 272 266 263 262 259 257 256 253 248 244 241 239 239 239 238 236 236 235 233 231 228 227 227 228 229 228 227 227 227
138 211 235 232 231 269 351 27 257 256 257 261 253 281 281 253 274 272 254 271 275 223 271 275 273 276 274 269 264 259 253 258 265 261 260 269 275 273 268 268 275 281 285 287 289 294 296 296 296 294 293 293 294 294 290 285 279 271 265 262 259 257 255 255 253 250 247 245 242 241 240 239 237 236 236 234 232 228 226 226 227 227 227 226 227 226
196 235 237 235 228 228 271 257 255 273 253 236 225 258 274 258 268 271 251 293 319 237 269 287 283 281 266 257 257 258 259 264 269 266 259 259 261 265 268 273 277 278 283 288 293 299 304 305 302 298 297 297 297 296 293 288 281 274 269 265 260 259 257 255 253 251 248 245 242 240 238 237 237 237 236 234 231 228 227 226 226 226 226 225 226 226
235 244 222 185 181 193 232 251 245 265 258 223 204 220 255 256 249 252 272 329 337 285 284 301 296 290 241 239 256 272 276 263 259 261 259 254 254 261 271 277 277 276 280 288 296 305 312 311 307 304 303 303 304 304 301 295 287 280 275 269 263 260 257 254 253 250 246 242 239 237 235 233 233 234 234 232 230 227 225 225 225 226 226 226 226 225
255 255 217 132 151 163 191 240 224 225 252 265 214 215 237 253 255 259 286 337 355 311 324 10 321 299 169 184 258 290 305 265 251 250 254 259 263 268 272 275 279 283 285 290 298 307 313 313 311 309 310 313 315 316 312 301 291 283 275 269 262 257 254 251 249 247 245 243 240 237 234 232 231 231 232 231 230 227 226 226 226 226 227 226 225 224
254 264 209 163 171 142 166 246 230 196 234 284 239 212 228 247 258 265 283 318 311 265 299 62 2 285 284 179 231 247 248 259 257 250 258 272 277 273 272 277 283 291 296 300 304 309 315 317 316 316 322 327 326 325 317 303 290 280 272 265 260 256 253 250 247 244 243 242 241 240 239 238 237 236 236 234 233 231 229 227 226 226 226 226 225 224
211 198 79 112 137 147 186 251 219 163 180 264 248 192 212 237 246 240 230 229 244 284 299 151 154 271 284 234 205 221 225 255 266 267 273 272 271 273 278 287 295 302 310 312 313 319 323 321 320 324 333 336 332 327 316 305 292 279 271 266 262 258 254 251 248 245 243 242 242 241 241 240 240 241 241 240 237 233 229 226 226 226 226 226 226 225
177 177 175 144 128 170 204 224 175 153 181 249 207 141 175 212 214 168 157 206 276 345 304 232 155 250 283 260 163 193 226 250 268 275 283 277 274 281 293 308 316 319 323 324 324 326 322 317 319 324 330 333 331 327 319 310 296 279 270 265 263 260 256 252 249 247 245 244 244 243 242 241 240 240 241 241 239 234 229 226 226 226 226 227 227 226
202 180 182 153 147 205 213 205 161 161 195 231 133 96 70 76 76 105 148 149 37 326 266 209 157 231 284 275 124 82 235 245 274 285 284 285 291 301 311 321 326 328 329 329 326 321 315 314 318 320 322 325 327 327 321 310 299 286 273 264 261 260 258 256 252 250 248 246 244 243 242 241 240 239 239 239 238 235 232 228 227 227 227 227 228 228
236 117 132 168 198 204 175 157 168 175 192 66 83 48 18 25 38 53 72 91 67 290 251 190 184 198 288 297 142 179 212 204 267 297 292 295 306 312 316 321 330 341 339 331 324 320 318 319 320 321 322 323 324 326 321 308 299 292 282 269 261 259 259 258 254 251 249 247 246 245 244 242 240 239 239 239 237 235 233 231 229 229 228 229 229 230
242 167 202 228 217 188 130 133 247 170 100 62 68 44 5 331 10 30 354 54 131 263 253 194 185 177 241 270 212 261 274 243 233 264 283 290 301 305 311 323 344 3 2 352 346 342 339 334 332 331 329 327 326 325 317 306 301 299 291 276 265 261 260 260 257 254 251 249 248 247 245 242 240 240 240 240 239 238 235 233 232 231 231 231 231 231
273 219 239 264 215 186 152 154 324 22 86 104 122 96 20 316 342 360 312 76 191 252 249 195 180 188 245 261 284 289 286 277 256 238 254 263 280 294 309 340 358 9 19 20 15 10 11 11 7 2 358 355 347 335 323 315 315 318 313 299 286 277 272 269 265 261 257 254 252 249 246 243 241 240 240 241 240 240 239 237 235 233 232 232 232 231
296 282 240 123 244 195 161 158 237 231 154 149 154 149 142 183 258 270 259 268 267 270 268 190 179 234 270 270 260 258 266 281 291 266 254 266 284 292 309 348 356 7 22 29 30 27 28 31 29 24 18 15 11 3 356 350 346 346 343 330 314 299 286 278 272 267 263 260 256 252 249 246 243 242 241 241 240 240 239 239 238 237 237 237 236 235
253 292 220 180 224 179 172 192 190 148 151 177 162 148 158 173 213 241 234 258 272 275 286 187 175 215 258 269 241 238 258 286 291 282 277 282 288 287 302 346 355 360 16 30 36 36 35 34 33 31 26 22 20 17 13 8 4 1 358 349 333 317 300 287 279 273 269 266 261 255 251 248 245 244 243 242 242 241 240 240 240 241 241 242 241 241
212 268 251 247 131 155 178 211 152 114 110 221 133 116 206 192 180 243 245 243 266 285 275 242 219 221 243 287 282 271 273 278 279 280 278 263 236 249 316 5 3 357 14 27 26 27 29 29 30 29 28 26 25 24 21 18 15 10 6 360 350 336 317 301 289 280 274 268 262 258 254 250 246 245 245 244 243 243 242 242 243 244 244 245 244 243
222 266 270 7 86 178 197 203 160 162 174 161 137 178 228 170 139 248 267 255 269 278 259 240 259 269 285 288 285 293 295 290 297 291 264 221 206 254 336 8 6 360 10 12 5 6 8 11 17 19 17 15 15 18 17 12 8 3 359 353 346 337 325 313 298 287 280 271 264 260 256 252 250 248 247 246 245 245 245 244 244 245 245 245 244 243
223 263 245 174 220 236 221 217 264 236 161 137 188 215 222 104 111 220 265 283 251 256 246 228 253 272 287 279 288 314 304 298 318 319 296 252 260 279 327 352 357 357 356 353 351 353 354 355 359 3 5 3 359 1 4 1 356 352 348 342 337 331 323 315 304 292 284 277 271 265 260 256 254 252 251 250 249 248 247 246 246 246 245 244 244 244
222 276 264 198 221 244 95 5 287 273 192 151 208 240 92 217 255 245 222 214 241 256 257 226 240 254 250 259 284 292 285 285 290 303 315 298 281 310 341 342 350 356 354 354 356 356 355 354 354 355 356 356 355 354 354 353 351 347 343 338 333 327 319 311 304 296 289 283 276 269 264 261 258 255 254 252 251 250 249 249 249 248 248 247 246 246
52 263 257 236 227 65 44 244 235 257 298 78 83 338 48 194 229 238 205 180 245 264 270 253 245 240 225 243 266 269 275 285 289 274 287 289 311 346 355 357 6 13 14 15 14 11 11 10 8 6 2 359 358 357 354 352 349 346 341 336 331 326 319 310 302 298 294 289 283 275 268 263 259 257 255 253 252 252 252 252 251 251 251 249 248 247
92 239 242 232 228 76 228 220 212 220 221 143 171 224 221 206 245 268 234 215 249 261 268 265 254 237 220 242 253 259 272 290 306 270 275 321 355 7 18 27 28 27 26 24 22 20 19 17 14 13 9 3 357 355 355 352 349 347 343 336 331 327 322 315 306 300 295 290 285 281 276 271 266 261 258 256 255 255 255 255 254 254 253 253 251 250
184 233 241 230 229 245 244 229 210 206 198 188 191 199 215 221 250 271 255 227 228 244 250 258 262 250 238 257 259 267 283 320 7 9 5 22 21 20 26 31 29 26 25 24 23 22 20 18 16 13 9 5 359 356 354 350 349 349 345 341 338 336 333 324 315 307 301 295 289 284 281 277 273 268 264 261 259 258 258 258 257 256 255 255 254 253
194 166 231 239 234 247 259 260 229 188 158 168 198 195 209 199 193 239 253 246 237 248 254 259 265 251 235 258 270 294 319 8 32 32 35 36 27 21 20 21 23 23 22 21 21 20 19 17 15 12 9 6 4 0 356 352 350 350 349 347 347 349 347 338 324 311 301 296 293 290 286 280 275 271 267 264 263 263 263 262 260 257 256 256 256 255
62 119 243 255 258 265 279 293 287 150 119 127 242 203 193 196 222 235 250 273 265 264 274 266 261 251 253 270 283 345 9 32 38 30 28 31 23 19 19 18 19 19 18 18 17 16 15 14 12 11 9 7 5 3 360 358 355 353 353 352 350 351 351 345 335 320 303 293 289 288 287 282 278 273 270 266 265 266 268 266 261 259 257 256 256 255
321 237 250 267 274 280 284 292 298 312 131 208 243 230 221 232 258 270 280 304 273 228 239 256 260 260 291 314 360 14 18 37 42 29 26 26 21 18 17 16 16 16 15 14 13 13 12 11 10 9 7 6 4 3 1 360 358 357 357 357 354 352 349 345 339 330 319 307 295 287 283 280 277 274 272 271 270 270 269 267 263 261 258 256 256 255
273 236 240 256 254 254 262 260 259 282 266 262 256 252 257 234 232 263 284 269 258 230 232 254 271 272 278 342 19 15 8 19 35 33 27 23 18 17 15 14 13 13 12 11 10 10 9 7 6 5 4 2 0 359 358 357 357 356 356 357 357 354 351 347 341 335 329 321 310 298 288 282 278 275 274 274 275 275 273 269 264 261 258 256 256 255
241 242 235 245 250 256 269 272 279 294 282 279 279 270 277 267 241 254 267 253 266 269 255 259 272 279 285 339 18 16 10 7 13 23 23 20 16 14 13 11 10 9 8 7 6 6 5 4 3 1 360 358 357 356 354 353 353 353 353 354 355 355 354 350 345 341 335 327 318 308 299 294 288 284 281 278 276 276 275 272 267 263 261 259 257 256
212 259 236 243 254 257 268 275 279 283 273 270 280 279 281 283 271 262 256 254 268 275 269 266 273 279 288 6 21 13 12 3 5 18 17 14 13 12 12 10 8 5 3 2 2 1 1 359 358 358 357 356 354 352 350 349 349 349 350 351 353 354 354 351 349 346 340 334 327 319 312 306 297 290 285 282 278 275 274 273 271 267 264 262 260 259
194 265 255 259 271 266 269 277 274 273 266 258 265 270 274 277 271 264 261 265 269 266 272 281 281 285 308 41 24 16 12 352 356 17 12 11 11 9 9 8 5 2 359 357 356 355 354 354 354 354 353 353 352 350 349 347 345 345 346 347 349 351 352 350 349 348 346 341 336 330 323 314 303 295 290 285 280 276 273 272 271 268 265 263 262 261
207 260 258 266 281 274 267 273 275 276 274 265 260 258 259 262 263 265 268 271 267 262 267 276 279 285 24 60 347 14 17 348 346 354 356 5 6 4 4 3 359 356 353 351 350 349 348 348 349 350 350 350 350 348 347 345 344 344 344 344 346 348 349 348 346 346 347 346 343 338 331 321 311 302 296 289 284 280 277 274 271 268 265 263 262 261
260 286 329 325 295 281 277 276 278 280 279 281 281 277 271 268 266 269 273 273 269 268 271 274 275 278 100 89 307 313 4 355 348 340 337 348 354 357 359 355 350 347 345 344 345 344 344 344 345 347 347 347 347 346 344 343 342 341 341 342 344 345 346 346 343 342 343 345 345 343 338 331 321 309 301 295 291 286 281 277 272 268 265 262 261 260
299 303 335 327 287 279 285 283 286 296 292 282 276 270 268 267 266 267 268 272 266 266 278 283 277 259 102 27 298 275 322 355 341 328 318 318 338 351 352 348 343 339 338 338 339 340 341 341 342 343 343 343 343 342 341 340 339 339 338 339 340 343 343 343 341 339 339 340 343 344 344 341 334 323 312 305 298 292 286 280 274 269 265 262 260 259
250 270 295 290 276 277 280 283 304 326 297 277 261 253 255 257 261 262 257 56 301 248 261 277 259 117 230 291 336 319 329 341 324 321 312 298 316 343 343 340 336 333 333 333 334 336 337 337 338 338 338 339 339 338 337 337 336 336 335 335 336 338 340 340 339 338 336 336 337 339 342 345 344 340 331 320 309 299 291 283 276 270 267 264 262 259
234 254 258 258 268 275 281 300 347 308 277 274 261 228 245 250 257 254 217 94 44 120 119 160 131 96 217 236 303 296 301 311 309 316 312 293 293 329 334 332 330 328 328 328 329 332 333 333 334 334 334 334 335 334 334 333 333 332 331 331 331 333 336 336 336 334 333 333 333 334 336 339 342 345 344 338 327 312 300 291 282 276 271 266 262 258
255 256 253 241 242 272 293 319 307 272 262 284 18 8 65 111 109 109 118 122 123 104 94 120 164 175 219 237 245 251 275 293 299 310 309 282 271 319 328 326 324 324 324 325 327 328 329 330 330 329 330 331 332 332 332 332 331 329 328 328 328 328 331 333 333 332 330 329 329 331 332 333 335 338 342 344 341 330 314 302 292 283 275 269 264 260
243 247 246 230 223 265 278 232 250 262 206 105 319 315 103 119 112 101 118 167 158 130 107 139 221 213 220 245 247 257 281 291 296 306 298 251 264 319 325 323 323 323 322 323 324 324 325 327 326 326 327 329 331 332 332 331 330 328 326 326 326 326 326 329 330 330 329 327 326 327 329 330 330 332 335 339 342 340 330 314 301 291 281 273 267 262
222 227 214 225 231 225 225 227 246 278 267 218 227 212 141 160 145 103 165 180 170 177 184 197 227 225 223 241 253 270 291 295 299 307 273 223 301 323 322 321 323 321 319 318 318 318 320 321 322 323 324 327 329 330 330 329 328 326 325 324 325 324 324 326 327 327 326 325 323 323 325 326 327 327 329 332 336 339 337 327 311 297 286 276 269 263
208 213 205 227 242 221 235 249 246 264 261 212 188 231 211 188 181 174 266 173 157 239 243 212 212 229 224 236 253 269 292 305 305 304 256 279 314 321 319 319 320 318 315 314 314 314 316 317 318 320 320 322 324 326 327 327 326 325 324 324 324 324 323 324 325 324 324 322 321 320 320 322 322 323 324 327 329 333 336 333 322 306 291 281 273 266
197 213 211 227 249 229 247 260 242 253 265 197 195 226 225 208 185 162 259 224 154 264 248 205 205 233 225 230 246 253 288 313 297 297 303 309 314 315 315 316 317 315 312 311 311 311 313 314 315 316 316 318 320 321 322 322 323 323 323 324 323 323 324 324 323 322 321 320 319 318 317 318 318 318 319 321 323 326 330 331 328 316 298 285 276 269
161 210 207 217 244 245 249 261 258 262 263 194 196 220 237 223 168 165 292 264 161 250 239 201 215 250 238 232 237 218 223 258 272 296 306 310 311 311 312 313 314 313 311 309 308 308 309 311 312 312 312 314 316 317 317 318 319 320 321 322 323 322 323 323 320 319 319 317 316 315 315 315 314 314 315 315 317 320 323 326 327 322 308 292 281 271
289 237 195 201 229 239 243 255 266 266 252 192 191 217 232 166 119 248 270 252 153 284 262 213 232 263 259 241 229 218 243 263 274 288 298 303 305 307 309 308 309 310 309 308 306 304 305 307 308 308 309 311 312 313 313 314 315 317 319 320 321 322 322 320 317 316 316 315 313 313 313 313 312 311 311 311 311 313 316 319 321 320 314 301 286 274
227 263 265 205 214 237 242 249 277 281 249 167 200 238 225 121 183 240 250 325 322 311 302 263 254 271 272 256 247 250 262 272 278 282 289 297 301 304 306 305 305 306 307 307 305 302 302 304 305 306 306 307 309 310 311 311 312 314 316 318 319 320 319 317 315 314 313 312 311 311 311 311 310 309 307 307 307 307 309 312 314 315 313 305 292 280
191 171 254 216 191 232 245 234 261 267 210 123 103 298 159 155 240 278 310 316 307 301 295 284 279 284 280 269 266 270 272 274 276 278 285 292 298 302 303 302 303 305 306 307 305 303 303 302 303 303 303 304 305 308 310 310 311 312 314 315 317 317 315 314 313 312 311 311 310 310 309 308 307 306 304 304 303 302 302 303 306 308 308 304 296 285
211 179 227 236 206 177 204 221 219 215 218 188 136 232 260 270 280 289 296 295 294 292 285 279 284 289 283 275 276 278 275 272 273 277 283 290 296 299 300 300 303 304 305 306 306 305 303 301 301 302 302 302 304 306 308 309 310 311 312 314 315 313 312 311 310 308 308 308 309 309 308 306 304 302 301 300 299 297 296 295 297 300 301 300 296 288
223 193 206 245 240 175 192 237 237 223 272 282 280 274 277 283 286 287 284 280 284 287 285 280 284 290 287 279 276 276 273 271 272 276 282 289 294 296 298 300 303 304 305 305 306 305 303 301 301 302 302 303 305 306 307 308 308 309 311 312 312 311 310 309 307 306 305 305 306 306 307 305 303 300 298 296 295 292 290 289 289 290 292 293 292 288
248 218 169 226 260 247 244 250 251 266 277 278 279 280 281 283 286 287 285 280 282 287 289 287 287 290 289 282 273 268 268 271 273 278 284 289 292 295 298 300 302 303 304 305 305 305 303 302 302 302 302 303 304 305 306 307 307 308 309 309 309 308 307 306 304 303 302 302 302 303 303 303 302 299 296 293 291 289 286 283 282 281 282 283 284 284
256 219 184 220 252 258 260 249 235 252 265 269 275 280 282 282 284 285 284 283 286 291 291 290 290 291 290 284 275 268 270 274 277 282 287 291 294 297 298 299 301 303 304 304 304 303 302 302 302 302 302 303 304 305 305 305 305 306 306 306 306 305 304 302 301 300 299 299 299 299 299 299 298 297 295 292 288 286 284 279 276 274 273 273 274 276
241 193 194 233 240 240 254 262 259 259 264 268 272 274 277 280 282 284 285 286 288 291 291 290 290 289 286 283 276 271 274 278 282 286 291 294 296 298 298 299 301 302 303 303 303 302 301 301 301 300 300 302 304 305 304 304 304 304 304 303 302 302 301 299 298 296 295 295 295 296 295 295 294 293 293 290 287 283 281 278 274 270 269 269 269 270
229 195 183 213 239 246 254 266 269 269 271 270 267 267 272 277 280 283 285 287 288 290 290 289 288 286 282 279 276 275 278 282 286 290 293 294 296 296 297 299 300 300 301 302 302 301 300 299 299 299 299 301 303 303 302 302 302 302 302 301 300 299 298 297 296 294 293 292 292 292 292 292 291 290 289 288 285 281 278 276 273 270 268 266 266 266
222 227 214 182 235 253 251 251 256 262 271 269 270 274 279 281 281 282 285 288 290 290 290 290 288 286 282 278 279 281 284 287 291 294 294 294 295 296 297 298 299 299 301 302 301 301 300 299 299 298 298 299 300 300 299 300 301 301 300 299 299 298 297 296 295 294 293 292 290 289 289 290 289 288 286 284 282 280 277 274 272 269 266 264 263 262
225 230 230 221 238 251 257 259 258 253 255 267 273 279 282 282 283 285 286 290 290 290 291 291 288 287 286 284 285 288 290 293 296 297 295 295 296 298 298 298 298 299 301 301 300 300 299 299 298 297 296 297 298 298 298 299 299 299 299 298 298 298 297 296 295 294 292 291 290 288 288 288 287 286 284 282 280 279 277 274 272 269 265 262 260 260
Height
1516 1519 1522 1519 1515 1511 1511 1513 1510 1508 1512 1515 1517 1517 1515 1514 1508 1503 1500 1496 1499 1497 1491 1488 1478 1473 1474 1471 1470 1469 1466 1466 1462 1458 1454 1450 1450 1449 1446 1440 1434 1430 1425 1423 1425 1426 1429 1430 1430 1431 1432 1432 1432 1432 1433 1432 1433 1433 1435 1436 1437 1440 1441 1442 1444 1446 1447 1450 1452 1454 1456 1458 1461 1464 1466 1469 1472 1475 1478 1481 1483 1486 1488 1491 1493 1495
1516 1520 1519 1511 1507 1508 1510 1512 1513 1514 1515 1516 1517 1517 1516 1516 1507 1498 1498 1493 1496 1497 1488 1484 1477 1470 1472 1469 1466 1466 1463 1457 1454 1456 1453 1447 1445 1444 1440 1434 1428 1425 1422 1421 1422 1422 1425 1426 1426 1427 1427 1427 1427 1427 1428 1427 1428 1429 1430 1431 1432 1434 1436 1436 1438 1440 1442 1444 1446 1448 1451 1454 1456 1458 1461 1464 1466 1469 1473 1476 1477 1480 1483 1486 1488 1490
1518 1518 1512 1505 1506 1510 1512 1513 1514 1514 1515 1515 1518 1520 1516 1515 1505 1494 1494 1493 1495 1496 1487 1484 1476 1466 1469 1466 1459 1457 1454 1450 1448 1452 1452 1446 1441 1435 1431 1429 1427 1425 1420 1417 1418 1419 1421 1423 1422 1423 1423 1423 1424 1423 1424 1423 1424 1424 1425 1426 1428 1429 1430 1432 1433 1435 1437 1440 1443 1445 1448 1450 1452 1454 1457 1459 1462 1466 1468 1470 1472 1475 1478 1481 1483 1486
1515 1510 1504 1503 1507 1511 1512 1512 1513 1513 1513 1513 1516 1519 1513 1509 1506 1497 1491 1491 1495 1494 1487 1486 1474 1460 1461 1457 1450 1449 1447 1448 1448 1446 1446 1442 1434 1427 1425 1428 1428 1423 1418 1415 1416 1417 1418 1419 1419 1419 1420 1421 1421 1421 1420 1420 1420 1420 1420 1421 1423 1424 1425 1427 1428 1430 1433 1437 1440 1441 1444 1446 1449 1451 1453 1456 1458 1461 1462 1464 1467 1470 1473 1476 1478 1482
1505 1501 1500 1503 1506 1509 1511 1512 1514 1513 1509 1509 1513 1515 1507 1501 1503 1499 1493 1492 1495 1493 1487 1486 1469 1449 1449 1449 1445 1446 1447 1446 1444 1440 1436 1431 1426 1425 1427 1426 1423 1419 1419 1418 1416 1415 1415 1416 1416 1415 1416 1417 1417 1417 1416 1417 1417 1416 1417 1417 1418 1419 1420 1422 1424 1426 1429 1432 1434 1437 1439 1442 1444 1446 1448 1450 1451 1453 1456 1459 1462 1465 1468 1471 1474 1478
1502 1499 1500 1503 1505 1509 1512 1511 1510 1510 1507 1507 1507 1504 1499 1496 1498 1498 1497 1499 1498 1493 1489 1490 1476 1450 1443 1449 1445 1443 1445 1441 1438 1435 1428 1423 1425 1428 1427 1423 1418 1418 1420 1419 1416 1414 1413 1413 1413 1412 1412 1413 1413 1413 1413 1413 1413 1413 1413 1414 1415 1415 1416 1418 1419 1421 1423 1426 1428 1430 1432 1435 1437 1439 1440 1441 1443 1446 1450 1454 1458 1461 1464 1467 1469 1472
1501 1499 1499 1502 1504 1508 1512 1509 1504 1505 1510 1509 1501 1495 1495 1497 1499 1500 1501 1504 1499 1493 1491 1494 1491 1469 1446 1444 1445 1441 1441 1438 1431 1428 1425 1425 1427 1425 1423 1421 1418 1418 1418 1418 1416 1414 1412 1410 1410 1409 1409 1410 1409 1408 1409 1409 1409 1410 1410 1411 1411 1412 1413 1414 1415 1417 1418 1420 1423 1425 1427 1430 1432 1433 1435 1437 1440 1444 1449 1452 1455 1457 1459 1461 1464 1466
1496 1497 1499 1501 1504 1507 1510 1505 1500 1504 1510 1506 1497 1494 1495 1496 1499 1502 1503 1505 1500 1496 1494 1492 1495 1488 1457 1439 1441 1439 1438 1437 1429 1426 1425 1425 1424 1423 1422 1420 1418 1418 1417 1416 1414 1411 1410 1409 1408 1407 1407 1408 1406 1405 1405 1405 1406 1407 1408 1409 1410 1410 1411 1412 1412 1413 1414 1415 1418 1421 1424 1427 1429 1431 1434 1436 1440 1443 1447 1449 1451 1453 1454 1457 1459 1462
1492 1494 1496 1498 1502 1505 1502 1497 1496 1501 1503 1498 1496 1497 1497 1497 1500 1502 1502 1503 1505 1501 1496 1490 1493 1494 1464 1436 1439 1442 1439 1436 1429 1427 1427 1424 1423 1422 1421 1419 1417 1417 1415 1413 1411 1408 1408 1407 1407 1406 1405 1405 1404 1403 1402 1401 1402 1403 1405 1406 1408 1409 1409 1410 1411 1411 1412 1413 1415 1418 1421 1424 1427 1430 1433 1435 1438 1441 1443 1445 1447 1449 1451 1453 1455 1458
1492 1492 1493 1494 1496 1495 1492 1492 1494 1497 1496 1494 1497 1498 1499 1501 1501 1503 1502 1501 1506 1501 1494 1492 1492 1491 1463 1430 1435 1445 1441 1436 1430 1428 1428 1426 1424 1421 1420 1419 1416 1413 1411 1410 1408 1407 1406 1405 1404 1403 1403 1403 1402 1401 1400 1399 1399 1400 1401 1403 1404 1406 1408 1409 1410 1411 1412 1413 1414 1416 1418 1421 1424 1427 1430 1432 1435 1437 1439 1442 1444 1446 1448 1450 1452 1455
1491 1492 1493 1491 1489 1487 1487 1492 1494 1494 1494 1495 1498 1496 1497 1501 1501 1505 1504 1501 1507 1499 1488 1487 1486 1489 1473 1437 1432 1440 1437 1436 1433 1428 1426 1425 1423 1421 1419 1419 1416 1413 1410 1408 1408 1406 1405 1403 1402 1401 1401 1400 1400 1399 1398 1397 1398 1398 1398 1400 1401 1403 1405 1407 1409 1410 1411 1413 1414 1415 1416 1418 1421 1424 1427 1429 1431 1433 1435 1438 1440 1442 1444 1447 1449 1451
1491 1491 1491 1486 1484 1485 1487 1491 1493 1494 1496 1496 1498 1497 1497 1499 1499 1504 1505 1503 1507 1495 1482 1482 1482 1489 1478 1442 1431 1437 1434 1433 1433 1430 1427 1425 1423 1420 1420 1419 1417 1415 1412 1410 1409 1406 1404 1402 1399 1399 1398 1398 1398 1397 1397 1396 1396 1396 1397 1398 1399 1400 1402 1405 1407 1409 1410 1411 1412 1414 1415 1417 1419 1420 1423 1425 1426 1429 1431 1434 1436 1439 1441 1443 1445 1447
1485 1486 1486 1483 1482 1484 1485 1489 1493 1494 1495 1497 1499 1502 1505 1505 1502 1503 1502 1504 1503 1489 1481 1485 1485 1486 1468 1438 1433 1436 1430 1427 1428 1428 1427 1425 1423 1421 1420 1420 1418 1417 1414 1412 1409 1407 1405 1402 1399 1397 1396 1396 1397 1396 1396 1396 1396 1396 1396 1397 1398 1399 1400 1402 1404 1406 1408 1410 1410 1412 1413 1415 1416 1418 1419 1421 1423 1425 1427 1430 1432 1434 1436 1438 1440 1441
1480 1481 1483 1482 1479 1479 1481 1485 1487 1487 1492 1497 1495 1498 1504 1506 1505 1502 1498 1501 1497 1482 1480 1487 1486 1480 1460 1437 1433 1431 1425 1424 1424 1425 1424 1423 1423 1422 1421 1421 1419 1419 1416 1413 1411 1409 1408 1404 1400 1398 1397 1396 1397 1397 1397 1397 1397 1397 1396 1397 1398 1399 1400 1400 1401 1403 1404 1406 1408 1410 1411 1413 1414 1415 1416 1417 1419 1421 1423 1426 1428 1430 1432 1434 1436 1438
1485 1480 1476 1475 1472 1472 1475 1475 1474 1476 1485 1491 1489 1490 1493 1490 1491 1492 1487 1488 1484 1472 1477 1487 1483 1470 1451 1433 1428 1425 1424 1424 1422 1422 1422 1423 1423 1423 1423 1422 1421 1419 1417 1415 1415 1412 1409 1406 1403 1401 1399 1398 1398 1398 1398 1398 1398 1398 1398 1398 1399 1399 1399 1399 1399 1400 1401 1402 1404 1406 1408 1410 1412 1413 1414 1415 1416 1418 1420 1422 1424 1426 1429 1431 1433 1435
1489 1479 1469 1470 1469 1469 1472 1469 1470 1475 1482 1488 1488 1489 1486 1478 1478 1482 1477 1473 1474 1475 1477 1479 1472 1455 1439 1427 1422 1422 1421 1420 1420 1419 1420 1421 1422 1422 1423 1423 1422 1420 1419 1418 1417 1414 1412 1409 1406 1403 1402 1402 1401 1401 1400 1400 1400 1400 1399 1399 1398 1398 1398 1398 1398 1398 1398 1400 1401 1402 1405 1407 1409 1411 1412 1413 1414 1415 1417 1419 1421 1423 1425 1428 1431 1433
1484 1476 1468 1471 1471 1470 1470 1469 1470 1472 1475 1484 1487 1482 1477 1474 1473 1479 1478 1472 1477 1483 1473 1464 1460 1449 1440 1431 1420 1418 1417 1416 1418 1418 1417 1419 1419 1421 1423 1423 1423 1422 1420 1420 1418 1417 1415 1411 1408 1406 1405 1405 1404 1403 1402 1401 1401 1400 1399 1399 1398 1398 1397 1397 1397 1397 1397 1398 1399 1400 1402 1404 1406 1408 1409 1411 1412 1414 1415 1417 1418 1420 1422 1424 1426 1428
1477 1474 1466 1467 1469 1469 1470 1471 1470 1469 1470 1477 1480 1473 1471 1474 1474 1477 1484 1481 1482 1484 1469 1457 1455 1450 1447 1436 1419 1417 1417 1414 1417 1417 1417 1419 1418 1420 1424 1424 1424 1423 1422 1422 1420 1418 1416 1413 1410 1407 1407 1406 1405 1404 1403 1402 1401 1400 1400 1399 1398 1398 1397 1396 1396 1396 1397 1398 1398 1399 1400 1402 1403 1405 1407 1408 1410 1412 1413 1414 1415 1416 1417 1418 1420 1423
1475 1476 1467 1462 1466 1468 1469 1471 1470 1468 1469 1471 1471 1469 1471 1477 1477 1477 1483 1484 1481 1478 1465 1455 1451 1448 1447 1437 1424 1422 1417 1412 1416 1418 1418 1419 1418 1420 1423 1423 1424 1423 1423 1422 1420 1419 1416 1413 1409 1407 1406 1405 1404 1403 1402 1402 1402 1401 1401 1400 1400 1399 1398 1397 1396 1396 1396 1397 1397 1398 1399 1400 1402 1402 1404 1405 1406 1408 1409 1410 1411 1412 1413 1415 1416 1418
1477 1481 1473 1462 1464 1469 1470 1470 1468 1466 1468 1471 1471 1471 1472 1475 1477 1475 1474 1473 1472 1469 1461 1454 1449 1443 1437 1431 1427 1424 1415 1411 1417 1419 1418 1419 1420 1424 1426 1425 1426 1425 1424 1422 1420 1418 1415 1412 1409 1406 1405 1404 1403 1402 1401 1400 1400 1400 1400 1400 1400 1400 1399 1399 1398 1397 1396 1396 1396 1397 1397 1398 1399 1400 1401 1402 1403 1404 1405 1407 1408 1409 1410 1412 1413 1413
1477 1481 1476 1465 1465 1470 1467 1463 1460 1460 1464 1469 1470 1472 1473 1471 1471 1471 1467 1462 1462 1463 1460 1456 1450 1440 1431 1426 1423 1420 1415 1415 1420 1422 1423 1425 1427 1429 1431 1431 1430 1428 1426 1423 1421 1418 1415 1412 1409 1406 1405 1404 1403 1402 1401 1400 1399 1399 1399 1398 1398 1397 1397 1398 1398 1398 1398 1397 1397 1396 1395 1395 1396 1397 1398 1399 1399 1400 1401 1403 1404 1406 1407 1408 1409 1409
1476 1476 1473 1468 1467 1465 1459 1455 1454 1454 1457 1460 1463 1465 1466 1465 1467 1470 1465 1456 1455 1457 1455 1454 1449 1438 1429 1425 1421 1418 1417 1421 1426 1428 1430 1432 1433 1432 1432 1432 1431 1429 1427 1425 1422 1419 1415 1411 1408 1406 1405 1405 1404 1403 1402 1400 1399 1399 1399 1398 1397 1396 1396 1396 1396 1396 1397 1397 1397 1396 1396 1396 1396 1395 1395 1396 1396 1396 1397 1398 1399 1401 1403 1403 1404 1405
1472 1474 1473 1468 1464 1459 1454 1452 1453 1454 1454 1457 1459 1458 1459 1461 1463 1465 1461 1453 1450 1450 1450 1452 1450 1438 1427 1423 1422 1421 1423 1430 1435 1436 1436 1438 1438 1435 1433 1431 1429 1428 1426 1424 1421 1418 1415 1413 1410 1407 1406 1406 1405 1404 1403 1402 1401 1400 1399 1399 1397 1396 1396 1395 1394 1394 1394 1394 1394 1395 1395 1396 1396 1395 1394 1393 1393 1392 1393 1394 1395 1396 1397 1397 1398 1399
1471 1474 1472 1467 1460 1456 1454 1452 1452 1454 1456 1458 1458 1457 1459 1459 1457 1457 1456 1454 1455 1454 1452 1454 1448 1435 1425 1423 1425 1428 1432 1438 1442 1442 1441 1440 1439 1437 1435 1432 1429 1428 1426 1424 1422 1420 1418 1415 1412 1410 1408 1407 1407 1406 1405 1404 1403 1402 1400 1399 1398 1396 1395 1395 1393 1392 1391 1391 1391 1391 1392 1392 1393 1394 1393 1392 1391 1390 1390 1390 1390 1391 1391 1392 1392 1393
1472 1472 1470 1470 1465 1461 1458 1456 1454 1455 1456 1458 1457 1455 1456 1457 1457 1458 1457 1460 1463 1457 1454 1454 1446 1435 1428 1426 1430 1436 1439 1442 1446 1446 1444 1442 1440 1440 1438 1435 1433 1431 1428 1426 1424 1422 1420 1417 1415 1414 1412 1411 1409 1408 1406 1405 1404 1403 1401 1400 1398 1396 1394 1394 1392 1390 1388 1387 1386 1386 1386 1387 1388 1389 1389 1389 1389 1388 1388 1387 1386 1386 1386 1386 1387 1387
1474 1470 1468 1470 1468 1463 1461 1458 1457 1456 1457 1458 1456 1454 1454 1456 1458 1459 1459 1462 1459 1450 1448 1449 1442 1434 1430 1430 1438 1444 1444 1444 1447 1449 1447 1446 1445 1443 1441 1440 1438 1435 1433 1430 1427 1425 1422 1420 1419 1417 1415 1413 1411 1409 1407 1405 1403 1402 1400 1399 1397 1394 1393 1391 1391 1389 1387 1385 1382 1381 1381 1381 1382 1382 1383 1383 1383 1383 1384 1383 1382 1382 1381 1382 1382 1382
1474 1471 1466 1465 1464 1460 1458 1456 1456 1458 1460 1458 1456 1454 1454 1455 1456 1458 1460 1459 1453 1447 1445 1442 1438 1434 1432 1437 1448 1453 1451 1449 1449 1449 1450 1449 1448 1446 1444 1442 1440 1439 1437 1434 1431 1428 1425 1423 1421 1418 1416 1414 1411 1409 1407 1405 1403 1400 1398 1396 1394 1393 1391 1389 1388 1386 1385 1383 1380 1378 1377 1376 1377 1377 1377 1377 1377 1376 1376 1375 1376 1376 1377 1378 1378 1378
1474 1470 1465 1463 1462 1459 1458 1457 1457 1459 1459 1457 1456 1454 1454 1454 1455 1458 1457 1451 1449 1448 1441 1435 1435 1433 1434 1445 1455 1456 1455 1454 1452 1451 1452 1451 1450 1448 1446 1443 1441 1439 1437 1434 1432 1430 1428 1426 1424 1421 1418 1415 1411 1409 1407 1405 1403 1400 1397 1394 1392 1391 1389 1386 1385 1383 1381 1380 1377 1375 1373 1372 1371 1371 1371 1371 1371 1370 1369 1368 1368 1369 1370 1372 1372 1372
1473 1470 1463 1461 1461 1458 1458 1457 1457 1459 1458 1457 1457 1455 1454 1454 1453 1453 1449 1445 1448 1448 1439 1434 1433 1432 1440 1454 1458 1456 1456 1456 1453 1453 1453 1451 1450 1448 1446 1444 1443 1441 1439 1436 1434 1433 1431 1429 1426 1423 1420 1417 1413 1410 1407 1404 1401 1398 1395 1392 1390 1388 1386 1384 1382 1380 1379 1377 1374 1371 1369 1367 1366 1365 1365 1365 1364 1363 1362 1362 1362 1363 1364 1365 1365 1366
1472 1468 1461 1462 1463 1460 1459 1458 1457 1458 1457 1455 1454 1453 1453 1451 1448 1446 1443 1442 1444 1441 1436 1435 1434 1436 1450 1459 1456 1454 1456 1454 1453 1453 1451 1450 1449 1447 1446 1444 1443 1442 1441 1439 1437 1434 1432 1429 1426 1423 1420 1417 1414 1410 1406 1403 1399 1396 1393 1390 1388 1386 1384 1382 1380 1379 1378 1375 1373 1370 1366 1363 1361 1360 1359 1359 1358 1357 1357 1356 1356 1356 1357 1358 1359 1360
1471 1467 1460 1462 1465 1461 1457 1456 1456 1456 1455 1454 1452 1450 1449 1447 1444 1443 1441 1439 1438 1435 1434 1435 1434 1440 1454 1458 1454 1455 1455 1453 1453 1451 1449 1449 1447 1445 1445 1443 1442 1442 1440 1439 1437 1434 1431 1428 1425 1421 1418 1414 1412 1409 1406 1402 1399 1396 1392 1389 1387 1385 1383 1381 1379 1378 1376 1374 1372 1369 1365 1362 1359 1356 1354 1353 1352 1352 1351 1351 1350 1350 1350 1351 1351 1353
1471 1469 1465 1466 1468 1460 1455 1455 1456 1455 1456 1455 1453 1449 1446 1443 1441 1439 1438 1438 1437 1435 1437 1436 1436 1445 1454 1455 1454 1455 1453 1452 1452 1450 1448 1447 1445 1444 1443 1442 1441 1440 1438 1437 1435 1432 1430 1427 1423 1420 1416 1413 1411 1408 1405 1402 1399 1395 1392 1388 1386 1383 1382 1380 1378 1376 1374 1372 1370 1368 1365 1362 1358 1355 1352 1349 1348 1347 1346 1345 1344 1343 1343 1343 1344 1345
1470 1471 1470 1471 1469 1460 1455 1456 1457 1461 1460 1452 1445 1442 1439 1437 1436 1432 1435 1442 1442 1440 1441 1440 1441 1449 1453 1453 1453 1453 1450 1450 1449 1447 1446 1445 1444 1444 1443 1442 1441 1438 1437 1435 1433 1430 1428 1425 1423 1420 1416 1414 1411 1408 1406 1403 1400 1396 1393 1389 1386 1383 1381 1378 1376 1375 1372 1371 1369 1367 1364 1362 1358 1354 1350 1347 1344 1342 1341 1340 1339 1338 1338 1337 1338 1339
1469 1470 1470 1471 1469 1462 1457 1458 1463 1466 1459 1443 1437 1438 1436 1433 1433 1433 1437 1445 1445 1443 1444 1445 1446 1450 1452 1451 1451 1450 1448 1448 1446 1445 1444 1443 1443 1443 1442 1441 1440 1437 1436 1434 1431 1428 1426 1424 1422 1419 1417 1414 1412 1409 1407 1404 1401 1397 1394 1391 1387 1384 1381 1378 1375 1373 1371 1369 1368 1366 1363 1360 1356 1353 1349 1346 1342 1339 1337 1335 1334 1334 1333 1333 1333 1333
1467 1468 1468 1468 1467 1463 1459 1463 1468 1460 1446 1438 1439 1441 1439 1437 1438 1440 1444 1446 1445 1444 1446 1448 1448 1449 1448 1448 1448 1447 1446 1445 1445 1443 1441 1441 1441 1441 1440 1439 1438 1436 1434 1431 1428 1426 1424 1422 1421 1419 1417 1414 1411 1409 1406 1403 1400 1397 1394 1391 1388 1384 1381 1378 1375 1372 1370 1367 1366 1364 1361 1358 1354 1351 1347 1344 1340 1336 1333 1331 1330 1330 1329 1328 1328 1328
1462 1465 1465 1465 1464 1463 1462 1464 1459 1445 1437 1442 1445 1441 1440 1441 1441 1443 1446 1446 1445 1446 1447 1448 1447 1446 1446 1446 1445 1444 1444 1443 1442 1441 1438 1439 1440 1439 1438 1436 1434 1432 1430 1427 1425 1423 1422 1421 1420 1418 1415 1412 1410 1407 1405 1402 1400 1396 1393 1390 1387 1383 1379 1376 1372 1370 1367 1365 1363 1361 1359 1356 1352 1348 1345 1342 1339 1335 1331 1328 1327 1326 1326 1325 1324 1324
1458 1461 1463 1464 1461 1459 1460 1457 1446 1438 1437 1440 1441 1439 1439 1439 1438 1440 1444 1444 1444 1445 1446 1446 1446 1444 1444 1443 1442 1442 1442 1441 1440 1438 1436 1437 1437 1436 1435 1433 1430 1429 1427 1425 1424 1422 1421 1420 1418 1416 1413 1410 1408 1406 1403 1401 1399 1395 1392 1389 1386 1382 1377 1373 1370 1367 1364 1362 1360 1358 1356 1354 1350 1346 1343 1340 1338 1334 1330 1327 1324 1323 1323 1322 1321 1321
1455 1456 1458 1462 1456 1451 1455 1452 1444 1441 1435 1430 1435 1439 1437 1437 1437 1439 1443 1445 1443 1444 1443 1443 1443 1441 1441 1441 1440 1440 1441 1440 1438 1435 1434 1435 1434 1433 1432 1430 1429 1427 1425 1423 1422 1420 1418 1417 1414 1412 1410 1408 1406 1405 1402 1400 1397 1393 1390 1387 1383 1379 1374 1370 1367 1364 1361 1359 1358 1356 1354 1351 1348 1345 1342 1339 1336 1334 1330 1326 1323 1321 1320 1319 1319 1318
1453 1453 1454 1458 1453 1449 1451 1450 1443 1439 1432 1429 1435 1437 1435 1437 1437 1438 1443 1443 1439 1440 1440 1439 1439 1438 1437 1438 1438 1439 1440 1439 1435 1432 1432 1432 1431 1430 1429 1427 1425 1424 1422 1421 1419 1416 1415 1413 1410 1408 1407 1405 1403 1402 1400 1397 1394 1391 1387 1384 1380 1376 1371 1367 1363 1360 1358 1356 1354 1353 1351 1349 1346 1343 1340 1337 1335 1332 1329 1325 1321 1319 1317 1316 1316 1316
1452 1452 1453 1455 1453 1450 1451 1449 1442 1435 1430 1430 1435 1434 1434 1436 1436 1440 1443 1438 1433 1436 1436 1435 1436 1435 1434 1436 1436 1437 1438 1436 1431 1428 1428 1428 1427 1427 1426 1424 1422 1420 1418 1417 1415 1413 1411 1409 1407 1405 1403 1401 1400 1398 1396 1393 1390 1387 1385 1381 1377 1372 1368 1364 1360 1357 1355 1352 1350 1349 1348 1346 1344 1341 1338 1335 1332 1329 1327 1323 1320 1317 1315 1314 1313 1313
1450 1451 1453 1454 1453 1451 1450 1448 1443 1435 1429 1431 1434 1433 1433 1435 1437 1440 1438 1430 1429 1433 1432 1432 1433 1432 1431 1433 1433 1433 1432 1429 1427 1425 1424 1424 1423 1422 1422 1421 1419 1417 1415 1413 1412 1410 1408 1405 1403 1401 1399 1397 1395 1393 1391 1388 1385 1382 1380 1376 1372 1368 1365 1361 1357 1354 1352 1348 1346 1345 1344 1343 1341 1338 1336 1333 1330 1327 1324 1321 1318 1316 1313 1311 1310 1310
1451 1453 1454 1453 1452 1452 1448 1446 1445 1438 1430 1430 1432 1430 1431 1435 1436 1432 1428 1425 1427 1429 1428 1429 1430 1428 1428 1429 1428 1427 1425 1424 1423 1422 1421 1420 1419 1417 1417 1417 1415 1413 1412 1410 1408 1406 1404 1401 1399 1397 1395 1393 1391 1388 1386 1383 1379 1376 1373 1370 1367 1364 1361 1358 1354 1350 1347 1344 1342 1341 1340 1339 1337 1335 1332 1329 1327 1324 1321 1318 1316 1314 1311 1309 1307 1306
1447 1452 1451 1446 1447 1450 1449 1447 1447 1440 1429 1428 1430 1429 1429 1430 1428 1424 1423 1425 1426 1425 1426 1426 1425 1425 1425 1424 1423 1423 1421 1420 1420 1418 1417 1417 1415 1413 1412 1411 1410 1408 1406 1405 1403 1401 1400 1397 1394 1392 1390 1388 1386 1383 1380 1377 1372 1369 1366 1363 1361 1359 1356 1354 1351 1347 1343 1340 1338 1336 1335 1333 1332 1330 1328 1325 1323 1321 1318 1316 1313 1311 1308 1306 1304 1303
1443 1447 1446 1440 1439 1444 1445 1441 1437 1431 1426 1426 1429 1428 1426 1424 1423 1423 1424 1423 1422 1422 1423 1422 1422 1422 1422 1420 1420 1419 1417 1416 1415 1414 1413 1412 1411 1409 1408 1406 1405 1403 1401 1399 1398 1396 1394 1391 1388 1385 1383 1382 1380 1378 1374 1371 1366 1361 1359 1357 1354 1352 1349 1348 1346 1343 1340 1337 1333 1331 1329 1327 1326 1325 1323 1321 1319 1317 1315 1313 1310 1307 1305 1303 1301 1300
1438 1438 1440 1437 1434 1436 1436 1429 1424 1424 1425 1424 1424 1424 1422 1420 1420 1421 1422 1420 1420 1419 1419 1419 1418 1418 1417 1417 1417 1415 1413 1412 1411 1410 1409 1408 1406 1405 1403 1401 1400 1398 1396 1394 1392 1390 1388 1385 1381 1379 1376 1374 1374 1371 1368 1365 1360 1356 1353 1351 1349 1345 1342 1340 1338 1336 1335 1332 1329 1326 1323 1321 1319 1318 1317 1316 1314 1312 1311 1309 1306 1303 1300 1299 1297 1296
1434 1434 1437 1435 1432 1432 1429 1422 1421 1423 1423 1420 1420 1419 1418 1417 1417 1417 1418 1417 1416 1416 1415 1415 1415 1414 1414 1413 1412 1411 1410 1408 1407 1406 1405 1404 1402 1401 1398 1396 1394 1392 1391 1388 1386 1384 1381 1378 1375 1372 1368 1366 1366 1364 1361 1359 1355 1350 1347 1345 1343 1340 1336 1334 1331 1328 1326 1325 1323 1321 1318 1314 1312 1311 1310 1309 1308 1306 1305 1304 1302 1298 1295 1294 1293 1293
1432 1433 1434 1432 1431 1431 1424 1417 1418 1421 1419 1417 1417 1415 1414 1414 1414 1414 1414 1413 1413 1413 1412 1412 1411 1411 1410 1409 1408 1407 1406 1404 1404 1402 1401 1400 1398 1395 1393 1391 1389 1387 1385 1382 1379 1377 1374 1371 1367 1364 1361 1358 1358 1356 1354 1351 1348 1345 1342 1338 1336 1333 1330 1328 1325 1321 1318 1316 1314 1313 1311 1308 1305 1302 1302 1301 1300 1299 1298 1298 1296 1293 1290 1288 1288 1288
1430 1430 1431 1429 1427 1425 1419 1413 1415 1417 1415 1414 1414 1412 1411 1411 1411 1411 1411 1410 1410 1410 1409 1409 1408 1408 1407 1406 1405 1404 1402 1401 1400 1398 1397 1396 1393 1390 1388 1386 1383 1381 1379 1376 1373 1371 1368 1364 1361 1357 1354 1351 1349 1348 1345 1341 1340 1338 1335 1332 1329 1326 1322 1319 1317 1314 1311 1308 1305 1303 1302 1301 1298 1295 1293 1293 1292 1292 1291 1290 1289 1287 1284 1282 1282 1283
1427 1426 1426 1425 1423 1419 1415 1413 1413 1414 1412 1411 1410 1409 1409 1408 1408 1408 1408 1407 1407 1407 1406 1406 1405 1404 1403 1403 1402 1401 1399 1398 1396 1396 1395 1392 1389 1386 1383 1381 1379 1376 1372 1369 1367 1365 1362 1358 1354 1351 1347 1343 1341 1339 1335 1332 1330 1329 1327 1324 1322 1319 1315 1311 1308 1305 1302 1300 1297 1295 1293 1291 1290 1288 1286 1284 1284 1283 1283 1282 1282 1280 1277 1276 1276 1277
1423 1421 1421 1424 1423 1417 1412 1411 1411 1412 1410 1407 1405 1405 1406 1406 1405 1405 1405 1405 1404 1404 1403 1403 1402 1401 1401 1400 1399 1397 1396 1394 1393 1392 1391 1388 1385 1381 1378 1376 1373 1370 1366 1364 1361 1358 1355 1352 1348 1344 1340 1336 1333 1331 1327 1323 1320 1319 1318 1316 1313 1311 1308 1304 1300 1296 1293 1291 1288 1286 1284 1282 1281 1280 1279 1277 1276 1275 1274 1274 1274 1273 1271 1270 1270 1270
1416 1414 1414 1418 1417 1411 1407 1405 1406 1408 1407 1404 1403 1403 1403 1403 1402 1402 1401 1402 1401 1400 1400 1399 1398 1397 1397 1396 1395 1394 1392 1390 1389 1387 1385 1382 1379 1376 1373 1371 1368 1363 1360 1357 1354 1351 1347 1344 1341 1337 1332 1328 1326 1322 1318 1315 1311 1310 1309 1307 1306 1304 1301 1297 1293 1288 1284 1282 1280 1278 1276 1274 1272 1272 1271 1270 1269 1268 1267 1265 1265 1265 1264 1264 1263 1264